User: anonymous   Login
Location: Antioch Church
(34.9543°N, 88.5145°W)
Time: 13:09:05
(UTC+00:00)
Language:

CZ-4C R/B - Orbit

View from above orbital plane
View from above orbital plane
View from above satellite
View from above satellite

Ground track
Ground track

The orbit data is extracted from the following two-line orbital elements,

1 36416U 10009D   20056.67652148 -.00000066 +00000-0 +20136-4 0  9991
2 36416 063.4268 144.0852 0483879 355.2447 004.4077 13.69564156498902
Epoch (UTC): 25 February 2020 16:14:11
Eccentricity: 0.0483879
inclination: 63.4268°
perigee height: 644 km
apogee height: 1358 km
right ascension of ascending node: 144.0852°
argument of perigee: 355.2447°
revolutions per day: 13.69564156
mean anomaly at epoch: 4.4077°
orbit number at epoch: 49890

The dashed part of the orbit path shows where the satellite is in the earth's shadow,  

DLR